Regional Weather Roundup
Issued by NWS Spokane, WA

Home | Current Version | Previous Version | Text Only | Print | Product List | Glossary On
Versions: 1 2 3 4 5 6 7 8 9 10 11 12 13 14 15 16 17 18 19 20 21 22 23 24 25 26 27 28 29 30 31 32 33 34 35 36 37 38 39 40 41 42 43 44 45 46 47 48 49 50
000
NZUS01 KOTX 210305
RWROTX

Eastern Washington/Northern Idaho Roundup
National Weather Service, Spokane WA
800 PM PDT SUN AUG 20 2017

Note: "fair" indicated few or no clouds below 12,000 feet with no
significant weather and/or obstructions to visibility.

...Northeast Washington and Northern Idaho Panhandle...

CITY           SKY/WX    TMP DP  RH WIND       PRES   REMARKS
Spokane Intl   PTCLDY    74  37  26 S7        30.03R
Spokane Downto CLEAR     75  38  26 SW6       30.02R
Deer Park      CLEAR     71  38  29 S5        30.02R
Sandpoint      CLEAR     66  45  45 CALM      30.00R
Bonners Ferry  FAIR      66  41  39 N14       30.03R

...Southeast Washington and southern Idaho Panhandle...

CITY           SKY/WX    TMP DP  RH WIND       PRES   REMARKS
Walla Walla    CLOUDY    78  40  25 W3        29.99R
Pullman/Moscow CLOUDY    69  40  34 NW5       30.07R
Lewiston       CLOUDY    78  42  27 NW7       29.98S
Lowell           N/A     69  49  48 N3        30.00R
Grangeville    FAIR      66  34  30 E6        30.07S

...Columbia Basin...

CITY           SKY/WX    TMP DP  RH WIND       PRES   REMARKS
Ephrata        CLEAR     74  40  29 S6        29.97S
Moses Lake     PTCLDY    78  41  26 S7        29.98R
Pasco          CLOUDY    79  46  31 E5        29.96R
Richland       CLOUDY    79  49  34 E3        29.95S
Hermiston      CLOUDY    77  48  35 CALM      29.95S
Pendleton      CLOUDY    72  37  28 N7        29.99S

...East Slopes Cascades...

CITY           SKY/WX    TMP DP  RH WIND       PRES   REMARKS
The Dalles     MOCLDY    78  56  46 NW12      29.96R
Yakima         PTCLDY    79  49  34 NW6       29.98S
Ellensburg     CLEAR     72  48  42 NW17      30.00F
Stampede Pass  CLEAR     57  47  69 VRB6      30.18R
Wenatchee      CLEAR     75  44  33 E8        29.96S
Omak           PTCLDY    72  44  36 N9        29.96S
Sunnyside        N/A     70  63  78 CALM      29.97R

...Southern British Columbia...

CITY           SKY/WX    TMP DP  RH WIND       PRES   REMARKS

...Western Montana...

CITY           SKY/WX    TMP DP  RH WIND       PRES   REMARKS
Kalispell      PTCLDY    71  38  29 W5        30.02R
Libby            N/A     68  39  34 CALM      30.01R
Missoula       MOCLDY    73  34  23 N8        30.04R

...Neighboring Cities...

CITY           SKY/WX    TMP DP  RH WIND       PRES   REMARKS
Seattle        PTCLDY    71  53  52 NE12      30.11R
Portland       PTCLDY    75  57  53 VRB6      30.03S
Boise          PTCLDY    76  35  22 NW6       29.97R
Great Falls    PTCLDY    68  27  21 N3        30.02R



USA.gov is the U.S. government's official web portal to all federal, state and local government web resources and services.